STARLINK-35632, 66129

Orbit data source: Space-Track

STARLINK-35632, 66129 is a payload satellite owned by SpaceX/Seattle (US) in LEO that was launched on Wed, 22 Oct 2025 UTC via an FALCON 9 launch vehicle from the Air Force Western Test Range (AFWTR). Payload-class satellites include a variety of spacecraft equipped with specific instruments for various scientific and technological missions. These include communications satellites like Starlink; space stations such as the ISS; scientific satellites like the Hubble; Earth observation satellites from companies like Planet Labs, Umbra, and HawkEye 360; GPS; miniature CubeSats for education and research; and military/defense satellites.

Loading next visibility...
Identifier
66129, 2025-237R
Orbit
LEO
Country
Flag of USUS
Related business
Manufacturer
SpaceX/Seattle
Mission
Operational Commercial Communications
Bus & Motor
STARLINK V2MO, Unknown motor
Mass
575 kg wet, ~530 kg dry
Launch date (UTC)
2025-10-22 (4 months ago)
Launch vehicle
FALCON 9
Launch site
Air Force Western Test Range (AFWTR)
Object type
Payload
Rocket body
Debris
Shape & HBR
Box + 2 Pan, 17.7 m
Radar Cross Section
36.964 m²

Expand to show TLE details & history
Last TLE update: 18 hours ago

TLE from 18 hours ago
0 STARLINK-35632
1 66129U 25237R   26061.40599671  .00039936  00000-0  13534-2 0  9997
2 66129  53.1591  73.5835 0001372  68.0327 292.0819 15.30196064 21492
Epoch: 2026-03-02T09:44Z
TLE epoch observation values (Epoch: 2026-03-02T09:44:38.115Z)
Latitude
-0.00007°
Longitude
127.22476°
Altitude
475.773 km
Speed
7.629 km/s
True Right ascension
04h 54m 20s
True Declination
0° 00' 00"
Sunlit
Object was in daylight at epoch
Visualization orbit readout
Latitude
Unknown
Longitude
Unknown
Altitude
Unknown
Speed
Unknown
Apparent Right ascension
Unknown
Apparent Declination
Unknown
Sunlit
N/A
Visualization observer readout
Local Sidereal Time
07:13:17
Azimuth
Unknown
Elevation
Unknown
Doppler factor
Unknown
Orbital elements
Apogee altitude
476.424 km
Perigee altitude
474.543 km
Semi-major axis
6,853.62 km
Eccentricity
0.00014
Inclination
53.1591°
RAAN
73.5835°
Arg. of periapsis
68.0327°
True anomaly
292.06733°
Mean anomaly
292.0819°
Eccentric anomaly
292.07462°
Mean motion
3.82528 °/min
Orbital period
94.11 mins
BSTAR
0.0013534
Loading maneuver chart data...
Computing Atmospheric mass density...
Loading historical data...
Loading historical data...
Loading historical data...
Loading historical data...
Loading historical data...
Loading historical data...
Loading historical data...

Documentation

Showing up to 5 results
|